Stations météo

Publicité
Dieppe, France (7040): Température de l'air & dewpoint: 10.02.2019 18:00:00 - 16.02.2019 18:00:00 (CET)Dieppe, France (7040): Température de l'air 5cm: 10.02.2019 18:00:00 - 16.02.2019 18:00:00 (CET)Dieppe, France (7040): Vitesse du vent & gusts: 10.02.2019 18:00:00 - 16.02.2019 18:00:00 (CET)Dieppe, France (7040): Direction du vent: 10.02.2019 18:00:00 - 16.02.2019 18:00:00 (CET)Dieppe, France (7040): reduced air pressure: 10.02.2019 18:00:00 - 16.02.2019 18:00:00 (CET)Dieppe, France (7040): visibility: 10.02.2019 18:00:00 - 16.02.2019 18:00:00 (CET)Dieppe, France (7040): Quantités de précipitations: 10.02.2019 18:00:00 - 16.02.2019 18:00:00 (CET)
Date & Time tt [°C] td [°C] tt 5cm [°C] ff [km/h] ff [knt] fx [km/h] fx [knt] dd ppp [hPa] vv [km] rr [mm]
16.02.2019 18:00:00 13,6 4,2 11,8 3 2 14 8 S 1023,5 - 0,0
16.02.2019 17:00:00 14,9 4,3 15,3 7 4 19 10 S 1023,8 - 0,0
16.02.2019 16:00:00 14,4 5,2 15,9 5 3 13 7 SSE 1024,2 10 0,0
16.02.2019 15:00:00 13,8 6,4 16,3 2 1 14 7 NNE 1024,8 - 0,0
16.02.2019 14:00:00 14,1 6,0 15,6 8 4 16 9 SSW 1025,5 - 0,0
16.02.2019 13:00:00 12,7 5,4 13,6 10 5 21 11 S 1026,1 10 0,0
16.02.2019 12:00:00 11,2 4,4 11,4 11 6 20 11 S 1026,3 - 0,0
16.02.2019 11:00:00 8,7 3,3 8,0 13 7 24 13 S 1026,1 - 0,0
16.02.2019 10:00:00 5,6 1,7 4,8 17 9 27 14 S 1026,1 10 0,0
16.02.2019 09:00:00 3,9 0,9 3,0 17 9 24 13 S 1026,1 - 0,0
16.02.2019 08:00:00 5,0 1,1 3,3 17 9 28 15 SSE 1025,4 - 0,0
16.02.2019 07:00:00 4,3 0,6 3,1 17 9 28 15 S 1024,8 10 0,0
16.02.2019 06:00:00 4,4 0,9 3,2 18 10 26 14 S 1025,1 - 0,0
16.02.2019 05:00:00 5,2 0,9 4,0 17 9 26 14 S 1024,7 - 0,0
16.02.2019 04:00:00 4,6 1,3 3,6 18 10 27 14 S 1025,1 10 0,0
16.02.2019 03:00:00 5,6 1,3 4,8 19 10 27 15 S 1025,3 - 0,0
16.02.2019 02:00:00 6,2 1,7 4,6 19 10 29 16 S 1025,8 - 0,0
16.02.2019 01:00:00 7,6 1,6 7,0 21 11 32 17 S 1025,7 - 0,0
16.02.2019 00:00:00 8,4 2,8 7,4 20 11 29 16 S 1025,7 - 0,0
15.02.2019 23:00:00 8,4 3,2 6,7 16 9 27 15 S 1025,8 - 0,0
15.02.2019 22:00:00 7,0 3,2 6,2 14 8 23 13 S 1025,7 10 0,0
15.02.2019 21:00:00 7,6 3,4 6,8 14 8 23 12 S 1025,8 - 0,0
15.02.2019 20:00:00 10,1 3,8 9,3 14 7 23 12 S 1026,2 - 0,0
15.02.2019 19:00:00 11,3 3,8 10,5 12 7 22 12 S 1026,3 10 0,0
15.02.2019 18:00:00 12,8 4,5 12,2 9 5 19 11 S 1026,3 - 0,0
15.02.2019 17:00:00 14,7 4,7 15,6 8 4 18 10 S 1026,4 - 0,0
15.02.2019 16:00:00 14,9 5,1 16,4 10 6 20 11 S 1026,8 10 0,0
15.02.2019 15:00:00 14,3 4,3 15,4 13 7 21 11 S 1027,2 - 0,0
15.02.2019 14:00:00 13,7 3,7 15,0 10 6 26 14 S 1027,7 - 0,0
15.02.2019 13:00:00 13,0 4,4 12,9 10 5 24 13 SSE 1028,2 10 0,0
15.02.2019 12:00:00 10,6 3,6 11,1 12 7 21 12 S 1028,8 - 0,0
15.02.2019 11:00:00 8,2 2,8 7,0 13 7 26 14 SSE 1029,1 - 0,0
15.02.2019 10:00:00 4,4 1,4 3,9 16 8 24 13 S 1029,2 10 0,0
15.02.2019 09:00:00 2,6 1,0 1,8 16 9 26 14 S 1029,4 - 0,0
15.02.2019 08:00:00 2,6 0,8 1,9 15 8 24 13 S 1029,4 - 0,0
15.02.2019 07:00:00 3,1 1,3 2,2 16 9 25 13 SSE 1029,3 10 0,0
15.02.2019 06:00:00 3,2 1,4 2,3 13 7 21 11 S 1029,4 - 0,0
15.02.2019 05:00:00 2,8 1,3 1,6 10 5 16 9 SSE 1029,4 - 0,0
15.02.2019 04:00:00 2,6 0,8 1,9 7 4 13 7 SSE 1029,7 10 0,0
15.02.2019 03:00:00 3,5 1,5 2,1 7 4 11 6 S 1029,9 - 0,0
15.02.2019 02:00:00 3,9 1,6 3,0 7 4 20 11 SSE 1030,2 - 0,0
15.02.2019 01:00:00 4,7 2,2 3,8 11 6 21 11 S 1030,1 10 0,0
15.02.2019 00:00:00 4,6 2,5 4,0 13 7 21 11 S 1030,3 - 0,0
14.02.2019 23:00:00 6,0 3,0 5,3 10 6 22 12 SSE 1030,5 - 0,0
14.02.2019 22:00:00 6,9 3,5 5,4 13 7 23 12 SSE 1030,7 10 0,0
14.02.2019 21:00:00 6,9 4,0 5,6 10 5 21 11 SSE 1030,9 - 0,0
14.02.2019 20:00:00 7,5 3,9 3,1 9 5 15 8 S 1030,9 - 0,0
14.02.2019 19:00:00 8,9 3,1 3,1 0 0 14 8 N 1031,2 12 0,0
14.02.2019 18:00:00 11,6 3,6 10,5 6 3 11 6 ESE 1031,0 - 0,0
14.02.2019 17:00:00 13,8 4,6 15,3 6 4 13 7 SSE 1031,0 - 0,0
14.02.2019 16:00:00 10,6 5,4 12,7 6 3 13 7 ESE 1031,5 10 0,0
14.02.2019 15:00:00 9,3 5,7 12,0 6 4 16 9 NE 1032,2 - 0,0
14.02.2019 14:00:00 12,9 3,5 14,1 4 2 18 10 SE 1032,8 - 0,0
14.02.2019 13:00:00 11,0 3,5 9,9 8 4 25 13 SSE 1033,4 10 0,0
14.02.2019 12:00:00 8,3 2,5 7,8 17 9 29 16 SSE 1033,5 - 0,0
14.02.2019 11:00:00 5,8 1,7 6,9 14 7 29 15 SSE 1033,4 - 0,0
14.02.2019 10:00:00 3,7 1,4 2,6 6 3 18 10 SSE 1034,0 10 0,0
14.02.2019 09:00:00 0,8 -0,2 0,1 4 2 16 9 S 1034,0 - 0,0
14.02.2019 08:00:00 0,6 -0,4 0,0 12 6 19 10 SSE 1033,4 - 0,0
14.02.2019 07:00:00 0,7 -0,6 -0,1 8 4 11 6 SSE 1033,6 10 0,0
14.02.2019 06:00:00 1,0 -0,5 -1,0 6 3 10 6 SSE 1033,9 - 0,0
14.02.2019 05:00:00 1,4 -0,1 -0,9 3 2 5 3 NE 1033,7 - 0,0
14.02.2019 04:00:00 2,3 0,0 -0,2 4 2 12 6 ESE 1033,6 - 0,0
14.02.2019 03:00:00 2,9 0,6 1,9 6 3 26 14 SE 1033,8 - 0,0
14.02.2019 02:00:00 4,0 0,7 2,7 17 9 33 18 SSE 1033,4 - 0,0
14.02.2019 01:00:00 3,2 0,6 2,5 15 8 27 14 SSE 1033,6 10 0,0
14.02.2019 00:00:00 3,1 0,8 2,3 15 8 25 13 SSE 1033,4 - 0,0
13.02.2019 23:00:00 3,4 0,8 2,8 14 7 26 14 SSE 1033,7 - 0,0
13.02.2019 22:00:00 3,6 1,5 2,3 15 8 24 13 S 1033,8 10 0,0
13.02.2019 21:00:00 3,6 1,0 -0,2 5 3 8 5 S 1034,3 - 0,0
13.02.2019 20:00:00 4,8 1,1 0,6 0 0 5 3 N 1034,7 - 0,0
13.02.2019 19:00:00 6,4 1,9 4,5 3 2 11 6 SSE 1034,1 12 0,0
13.02.2019 18:00:00 8,3 2,5 7,8 7 4 13 7 SE 1034,0 - 0,0
13.02.2019 17:00:00 9,5 2,6 9,8 7 4 18 10 S 1034,2 - 0,0
13.02.2019 16:00:00 10,2 2,5 11,8 9 5 26 14 S 1034,3 - 0,0
13.02.2019 15:00:00 9,8 2,9 10,1 11 6 28 15 S 1034,6 - -
13.02.2019 14:00:00 - - - - - - - - - - -
13.02.2019 13:00:00 8,2 1,6 8,7 14 8 31 17 S 1035,6 - 0,0
13.02.2019 12:00:00 7,6 2,1 8,2 20 11 31 17 S 1035,6 - 0,0
13.02.2019 11:00:00 5,9 2,2 5,9 11 6 26 14 S 1035,8 - 0,0
13.02.2019 10:00:00 4,0 1,2 3,1 13 7 29 16 SSE 1035,9 - 0,0
13.02.2019 09:00:00 2,4 0,3 1,7 15 8 31 17 SSE 1035,9 - 0,0
13.02.2019 08:00:00 2,0 0,2 1,3 13 7 27 14 SSE 1035,7 - 0,0
13.02.2019 07:00:00 2,4 0,5 1,9 16 9 29 16 SSE 1035,5 10 0,0
13.02.2019 06:00:00 2,5 0,9 1,5 13 7 22 12 SSE 1035,7 - 0,0
13.02.2019 05:00:00 2,1 0,5 1,5 14 8 21 12 S 1035,7 - 0,0
13.02.2019 04:00:00 2,6 0,8 2,0 14 8 22 12 S 1035,9 10 0,0
13.02.2019 03:00:00 2,7 1,2 1,6 14 7 22 12 SSE 1036,0 - 0,0
13.02.2019 02:00:00 3,0 1,4 2,3 14 7 22 12 SSE 1036,0 - 0,0
13.02.2019 01:00:00 3,3 1,8 2,2 15 8 21 12 S 1036,2 10 0,0
13.02.2019 00:00:00 2,9 1,4 2,0 14 8 19 10 S 1036,0 - 0,0
12.02.2019 23:00:00 3,6 1,6 2,8 11 6 20 11 S 1036,1 - 0,0
12.02.2019 22:00:00 4,6 2,3 3,7 11 6 18 10 S 1036,0 10 0,0
12.02.2019 21:00:00 5,4 2,6 4,7 11 6 15 8 S 1036,4 - 0,0
12.02.2019 20:00:00 6,0 3,2 5,1 8 4 11 6 S 1036,1 - 0,0
12.02.2019 19:00:00 6,6 3,9 4,3 7 4 9 5 SSE 1035,7 - 0,0
12.02.2019 18:00:00 7,0 4,3 6,4 6 3 13 7 WSW 1035,6 - 0,0
12.02.2019 17:00:00 7,7 5,2 7,8 9 5 13 7 W 1035,6 - 0,0
12.02.2019 16:00:00 8,1 5,6 9,6 8 4 18 10 W 1035,4 10 0,0
12.02.2019 15:00:00 8,3 5,2 8,4 11 6 18 10 W 1035,3 - 0,0
12.02.2019 14:00:00 7,8 4,0 8,5 8 4 16 9 W 1035,8 - 0,0
12.02.2019 13:00:00 9,5 3,0 10,9 10 6 20 11 W 1036,0 - 0,0
12.02.2019 12:00:00 8,5 2,7 10,0 11 6 22 12 SW 1036,0 - 0,0
12.02.2019 11:00:00 7,7 2,4 8,5 10 5 19 10 SSW 1035,5 - 0,0
12.02.2019 10:00:00 5,9 2,7 4,6 13 7 22 12 S 1035,3 14 0,0
12.02.2019 09:00:00 4,7 2,6 4,2 13 7 19 11 S 1035,3 - 0,0
12.02.2019 08:00:00 4,4 2,1 3,2 13 7 20 11 S 1034,9 - 0,0
12.02.2019 07:00:00 3,8 1,7 3,2 11 6 18 10 S 1034,4 14 0,0
12.02.2019 06:00:00 3,6 1,6 3,2 11 6 15 8 S 1034,5 - 0,0
12.02.2019 05:00:00 3,6 1,8 3,2 10 6 16 9 S 1034,6 - 0,0
12.02.2019 04:00:00 3,3 1,7 2,9 11 6 17 9 S 1034,7 12 0,0
12.02.2019 03:00:00 3,1 1,6 2,3 13 7 18 10 S 1034,4 - 0,0
12.02.2019 02:00:00 2,7 1,5 2,0 11 6 18 10 S 1034,3 - 0,0
12.02.2019 01:00:00 2,7 1,7 2,2 11 6 16 9 S 1034,2 - 0,0
12.02.2019 00:00:00 2,8 1,8 2,2 11 6 18 10 S 1033,7 - 0,0
11.02.2019 23:00:00 3,0 2,0 2,3 11 6 16 9 S 1033,5 - 0,0
11.02.2019 22:00:00 3,8 2,5 2,9 10 5 14 8 S 1033,0 14 0,0
11.02.2019 21:00:00 4,7 2,7 3,5 7 4 10 5 S 1032,4 - 0,0
11.02.2019 20:00:00 6,0 3,3 4,2 6 3 10 5 WSW 1031,9 - 0,0
11.02.2019 19:00:00 6,2 4,4 3,2 5 3 11 6 WSW 1031,0 - 0,0
11.02.2019 18:00:00 7,1 3,7 6,6 10 6 18 10 NW 1030,3 - 0,0
11.02.2019 17:00:00 7,3 3,7 7,1 11 6 16 9 NNW 1029,4 - 0,0
11.02.2019 16:00:00 8,9 4,9 9,1 11 6 22 12 NNW 1028,4 12 0,0
11.02.2019 15:00:00 8,7 5,1 9,1 16 8 22 12 NNW 1027,2 - 0,0
11.02.2019 14:00:00 8,1 4,7 7,3 14 8 26 14 NNW 1026,8 - 0,0
11.02.2019 13:00:00 7,5 3,7 7,8 16 8 25 13 NNW 1025,6 12 0,0
11.02.2019 12:00:00 7,9 4,5 7,2 20 11 36 20 N 1024,4 - 0,0
11.02.2019 11:00:00 7,0 3,8 7,1 23 12 32 17 N 1023,4 - 0,0
11.02.2019 10:00:00 7,3 4,3 6,9 24 13 36 19 N 1021,4 - 0,0
11.02.2019 09:00:00 7,1 5,1 6,4 20 11 37 20 N 1019,7 - 0,0
11.02.2019 08:00:00 7,4 5,2 6,1 27 15 33 18 NW 1017,9 - 0,2
11.02.2019 07:00:00 7,0 5,5 6,0 19 10 47 25 WNW 1016,7 10 0,8
11.02.2019 06:00:00 6,9 4,9 5,7 19 10 39 21 WSW 1015,7 - 0,2
11.02.2019 05:00:00 6,8 4,5 4,9 19 10 56 30 WSW 1015,4 - 0,0
11.02.2019 04:00:00 7,2 3,6 5,7 23 13 39 21 W 1014,8 10 0,2
11.02.2019 03:00:00 7,3 4,1 6,7 14 8 38 20 W 1014,6 - 0,0
11.02.2019 02:00:00 7,1 3,7 5,9 23 12 42 23 WNW 1014,4 - 0,0
11.02.2019 01:00:00 7,2 3,1 6,5 26 14 50 27 WNW 1013,8 10 0,0
11.02.2019 00:00:00 7,2 2,3 6,5 28 15 55 30 WNW 1012,4 - 0,0
10.02.2019 23:00:00 7,3 2,6 6,8 31 17 63 34 WNW 1011,8 - 0,0
10.02.2019 22:00:00 7,4 2,3 6,9 41 22 63 34 NW 1010,7 - 0,0
10.02.2019 21:00:00 7,6 2,5 7,1 32 17 61 33 WNW 1009,6 - 0,0
10.02.2019 20:00:00 7,7 3,0 7,0 33 18 62 34 WNW 1008,3 - 0,0
10.02.2019 19:00:00 7,4 3,4 6,9 42 23 64 35 WNW 1006,3 14 0,0
10.02.2019 18:00:00 7,4 4,2 6,1 36 20 55 30 WNW 1004,5 - 0,0

tt = Température de l'air
td = dewpoint
tt 5cm = Température de l'air 5cm
ff = Vitesse du vent
fx = gusts
dd = Direction du vent
ppp = reduced air pressure
vv = visibility
rr = Quantités de précipitations

stations d'obs. à proximité